This demonstration page uses our WeatherBlox Daily Observations layout. Learn more.

Left ArrowRight Arrow

34.02893, -84.19858

Hourly Observations for November 24, 2016

Temp ( °F °C ) Dew Point ( °F °C ) Humidity (%) Winds ( mph kmh ) Pressure ( in mb ) Visibility ( mi km ) Precip ( " mm )
12:53 am 00:53 Cloudy 59 15 49 9.4 69 69 SSE 3 6 30.17 1022 10 16 0.00 0.00
1:53 am 01:53 Cloudy 58 14.4 49 9.4 72 72 SSE 3 6 30.16 1021 10 16 0.00 0.00
2:53 am 02:53 Mostly Clear 55 12.8 48 8.9 77 77 Calm 30.16 1022 10 16 0.00 0.00
3:53 am 03:53 Cloudy 53 11.7 47 8.3 80 80 Calm 30.17 1022 10 16 0.00 0.00
4:53 am 04:53 Mostly Cloudy 54 12.2 48 8.9 80 80 SE 3 6 30.18 1022 10 16 0.00 0.00
5:33 am 05:33 Mostly Cloudy 54 12.2 48 8.9 80 80 Calm 30.21 1023 10 16 0.00 0.00
5:42 am 05:42 Partly Cloudy 54 12 48 9 82 82 SSE 3 6 30.21 1023 10 16 0.00 0.00
5:53 am 05:53 Mostly Clear 51 10.6 47 8.3 86 86 Calm 30.20 1023 10 16 0.00 0.00
6:53 am 06:53 Mostly Cloudy 51 10.6 47 8.3 86 86 SSE 3 6 30.21 1023 10 16 0.00 0.00
7:06 am 07:06 Mostly Cloudy 52 11 48 9 88 88 Calm 30.21 1023 10 16 0.00 0.00
7:20 am 07:20 Cloudy 52 11 48 9 88 88 Calm 30.21 1023 10 16 0.00 0.00
7:53 am 07:53 Cloudy 54 12.2 49 9.4 83 83 Calm 30.22 1023 10 16 0.00 0.00
8:33 am 08:33 Cloudy 57 13.9 51 10.6 81 81 SSE 3 6 30.24 1024 10 16 0.00 0.00
8:42 am 08:42 Cloudy 57 14 52 11 82 82 Calm 30.24 1024 9 14 0.00 0.00
8:53 am 08:53 Cloudy 58 14.4 52 11.1 81 81 Calm 30.23 1024 9 14 0.00 0.00
9:53 am 09:53 Cloudy 63 17.2 55 12.8 76 76 WSW 7 11 30.24 1024 10 16 0.00 0.00
10:53 am 10:53 Mostly Cloudy 67 19.4 55 12.8 66 66 W 7 11 30.23 1024 10 16 0.00 0.00
11:53 am 11:53 Cloudy 69 20.6 55 12.8 61 61 VRB 6 9 30.20 1023 10 16 0.00 0.00
12:05 pm 12:05 Cloudy 69 20.6 54 12.2 59 59 VRB 7 11 30.18 1022 10 16 0.00 0.00
12:53 pm 12:53 Cloudy 71 21.7 55 12.8 57 57 WSW 6 9 30.18 1022 10 16 0.00 0.00
1:00 pm 13:00 Cloudy 72 22 54 12 53 53 SSW 12 19 30.18 1022 10 16 0.00 0.00
1:08 pm 13:08 Cloudy 73 23 54 12 50 50 SW 9 15 30.18 1022 10 16 0.00 0.00
1:53 pm 13:53 Cloudy 71 21.7 53 11.7 53 53 WSW 9 15 30.16 1021 10 16 0.00 0.00
2:00 pm 14:00 Mostly Cloudy 72 22 54 12 53 53 SSW 10 17 30.15 1021 10 16 0.00 0.00
2:53 pm 14:53 Partly Cloudy 72 22.2 52 11.1 50 50 SW 8 13 30.15 1021 10 16 0.00 0.00
3:53 pm 15:53 Partly Cloudy 74 23.3 51 10.6 45 45 SW 9 15 30.15 1021 10 16 0.00 0.00
4:53 pm 16:53 Mostly Sunny 69 20.6 51 10.6 53 53 SW 5 7 30.16 1021 10 16 0.00 0.00
5:53 pm 17:53 Clear 66 18.9 51 10.6 59 59 S 5 7 30.17 1022 10 16 0.00 0.00
6:53 pm 18:53 Clear 58 14.4 50 10 75 75 Calm 30.19 1023 10 16 0.00 0.00
7:53 pm 19:53 Mostly Cloudy 57 13.9 51 10.6 81 81 Calm 30.20 1023 10 16 0.00 0.00
8:53 pm 20:53 Partly Cloudy 56 13.3 51 10.6 84 84 Calm 30.20 1023 9 14 0.00 0.00
9:53 pm 21:53 Mostly Clear 56 13.3 52 11.1 87 87 Calm 30.19 1023 10 16 0.00 0.00
10:53 pm 22:53 Clear 54 12.2 50 10 87 87 Calm 30.20 1023 9 14 0.00 0.00
11:53 pm 23:53 Partly Cloudy 52 11 50 10 94 94 Calm 30.21 1023 8 13 0.00 0.00

Powered by AerisWeather